This demonstration page uses our WeatherBlox Daily Observations layout. Learn more.

Left ArrowRight Arrow

34.02893, -84.19858

Hourly Observations for April 8, 2019

Temp ( °F °C ) Dew Point ( °F °C ) Humidity (%) Winds ( mph kmh ) Pressure ( in mb ) Visibility ( mi km ) Precip ( " mm )
12:53 am 00:53 Mostly Clear 63 17.2 61 16.1 93 93 Calm 30.07 1018 10 16 0.00 0.00
1:53 am 01:53 Clear 61 16.1 60 15.6 97 97 Calm 30.06 1018 9 14 0.00 0.00
2:53 am 02:53 Clear 62 16.7 61 16.1 96 96 Calm 30.04 1017 8 13 0.00 0.00
3:53 am 03:53 Mostly Cloudy 65 18.3 63 17.2 93 93 S 3 6 30.02 1017 10 16 0.00 0.00
4:53 am 04:53 Mostly Cloudy 65 18.3 63 17.2 93 93 Calm 30.00 1016 9 14 0.00 0.00
5:53 am 05:53 Clear 65 18.3 63 17.2 93 93 SSE 6 9 29.98 1015 9 14 0.00 0.00
6:53 am 06:53 Clear 64 17.8 63 17.2 96 96 SSE 3 6 29.98 1015 9 14 0.00 0.00
7:53 am 07:53 Sunny 65 18.3 63 17.2 93 93 SSE 6 9 29.98 1015 8 13 0.00 0.00
8:35 am 08:35 Mostly Sunny 66 18.9 64 17.8 93 93 S 7 11 29.99 1016 8 13 0.00 0.00
8:53 am 08:53 Mostly Cloudy 67 19.4 64 17.8 91 91 VRB 7 11 29.98 1015 8 13 0.00 0.00
9:53 am 09:53 Cloudy 69 20.6 65 18.3 87 87 S 8 13 29.98 1015 10 16 0.00 0.00
10:53 am 10:53 Mostly Cloudy 69 20.6 64 17.8 84 84 S 8 13 29.97 1015 10 16 0.00 0.00
11:53 am 11:53 Cloudy 70 21.1 64 17.8 82 82 S 7 11 29.98 1015 10 16 0.00 0.00
12:13 pm 12:13 Cloudy 70 21.1 65 18.3 84 84 SSE 6 9 29.97 1015 10 16 0.00 0.00
12:53 pm 12:53 Mostly Cloudy 72 22.2 64 17.8 76 76 SSW 13 20 29.95 1014 10 16 0.00 0.00
1:39 pm 13:39 Mostly Cloudy 73 22.8 64 17.8 74 74 SSW 16 26 29.90 1013 10 16 0.00 0.00
1:53 pm 13:53 Mostly Cloudy 73 22.8 63 17.2 71 71 SW 15 24 29.91 1013 10 16 0.00 0.00
2:53 pm 14:53 Cloudy 72 22.2 66 18.9 82 82 SW 7 11 29.90 1012 10 16 0.01 0.25
3:53 pm 15:53 Cloudy with Light Rain 70 21.1 62 16.7 76 76 SSW 12 19 29.87 1012 10 16 0.00 0.03
4:00 pm 16:00 Cloudy with Light Rain 70 21.1 62 16.7 76 76 S 13 20 29.87 1012 10 16 0.00 0.03
4:21 pm 16:21 Cloudy 69 20.6 61 16.1 76 76 S 14 22 29.86 1011 10 16 0.00 0.03
4:49 pm 16:49 Cloudy 70 21 63 17 78 78 S 8 13 29.85 1011 10 16 0.00 0.03
4:53 pm 16:53 Cloudy 70 21.1 62 16.7 76 76 S 7 11 29.85 1011 10 16 0.00 0.03
5:01 pm 17:01 Cloudy 70 21.1 62 16.7 76 76 S 8 13 29.86 1011 10 16 0.00 0.00
5:53 pm 17:53 Cloudy 69 20.6 64 17.8 84 84 SSW 10 17 29.85 1011 10 16 0.00 0.00
6:20 pm 18:20 Cloudy with Light Rain 68 20 65 18.3 90 90 SSE 7 11 29.83 1010 9 14 0.01 0.25
6:53 pm 18:53 Partly Cloudy 69 20.6 65 18.3 87 87 S 6 9 29.82 1010 10 16 0.01 0.25
7:36 pm 19:36 Cloudy 69 20.6 65 18.3 87 87 S 5 7 29.83 1010 10 16 0.00 0.00
7:53 pm 19:53 Cloudy 69 20.6 65 18.3 87 87 SSW 3 6 29.84 1010 10 16 0.00 0.00
8:50 pm 20:50 Mostly Cloudy 66 19 64 18 94 94 S 3 6 29.85 1011 10 16 0.00 0.00
8:53 pm 20:53 Mostly Cloudy 67 19.4 65 18.3 93 93 SSE 3 6 29.84 1011 10 16 0.00 0.00
9:53 pm 21:53 Partly Cloudy 66 18.9 65 18.3 96 96 SSE 3 6 29.85 1011 10 16 0.00 0.00
10:53 pm 22:53 Clear 66 18.9 65 18.3 96 96 Calm 29.85 1011 10 16 0.00 0.00
11:53 pm 23:53 Partly Cloudy 64 17.8 64 17.8 100 100 Calm 29.85 1011 7 11 0.00 0.00

Powered by AerisWeather